Tracking 19574 objects as of 16-Feb-2019
HD Live streaming from Space Station
objects crossing your sky now

FLOCK 3P 11

Track FLOCK 3P 11 now!
10-day predictions
FLOCK 3P 11 is classified as:


NORAD ID: 41975
Int'l Code: 2017-008AD
Perigee: 492.6 km
Apogee: 503.0 km
Inclination: 97.4 °
Period: 94.4 minutes
Semi major axis: 6868 km
RCS: Unknown
Launch date: February 15, 2017
Source: United States (US)
Launch site: SRIHARIKOTA (SRI)
aabbcc
Your satellite tracking list
Your tracking list is empty




NASA's NSSDC Master Catalog

Two Line Element Set (TLE):
1 41975U 17008AD  19046.82851850  .00001000  00000-0  42889-4 0  9995
2 41975  97.4218 114.9849 0007588 203.6282 156.4608 15.25049773110922
Source of the keplerian elements: AFSPC